contact:dominique.lefevre@mio.osupytheas.fr, maurice.libes@osupytheas.fr, didier.mallarino@osupytheas.fr
Project:EMSO http://www.emso-fr.org/EMSO-France
Depth: 2436.0 m
Title:EMSO Ligure Ouest : Data MII capteur CSTAR
DateTime,Latitude,Longitude,Instrument_Serial,Reference_Counts,Signal_Counts,Corrected_Signal_raw_counts,Calculated_Beam_c_inverse_meters,Internal_thermistor_counts
DateTime,Latitude,Longitude,Instrument_Serial,Reference_Counts,Signal_Counts,Corrected_Signal_raw_counts,Calculated_Beam_c_inverse_meters,Internal_thermistor_counts
2023-03-01T00:01:32,42.805,6.029,CST-1368DR,4368,4852,11800,01.121,551
2023-03-01T00:04:33,42.805,6.029,CST-1368DR,4368,4854,11804,01.119,551
2023-03-01T00:07:35,42.805,6.029,CST-1368DR,4368,4853,11804,01.119,551
2023-03-01T00:10:37,42.805,6.029,CST-1368DR,4368,4845,11783,01.127,551
2023-03-01T00:13:38,42.805,6.029,CST-1368DR,4368,4860,11820,01.114,551
2023-03-01T00:16:40,42.805,6.029,CST-1368DR,4368,4853,11803,01.120,551
2023-03-01T00:19:41,42.805,6.029,CST-1368DR,4368,4854,11804,01.119,551
2023-03-01T00:22:43,42.805,6.029,CST-1368DR,4368,4853,11803,01.120,551
2023-03-01T00:25:44,42.805,6.029,CST-1368DR,4368,4853,11804,01.119,551
2023-03-01T00:28:46,42.805,6.029,CST-1368DR,4368,4849,11793,01.123,551
2023-03-01T00:31:48,42.805,6.029,CST-1368DR,4368,4848,11791,01.124,551
2023-03-01T00:34:49,42.805,6.029,CST-1368DR,4368,4854,11804,01.119,551
2023-03-01T00:37:51,42.805,6.029,CST-1368DR,4368,4853,11803,01.120,551
2023-03-01T00:40:52,42.805,6.029,CST-1368DR,4368,4851,11799,01.121,551
2023-03-01T00:43:54,42.805,6.029,CST-1368DR,4368,4853,11803,01.120,551
2023-03-01T00:46:55,42.805,6.029,CST-1368DR,4368,4849,11792,01.123,551
2023-03-01T00:49:57,42.805,6.029,CST-1368DR,4368,4851,11798,01.121,551
2023-03-01T00:52:59,42.805,6.029,CST-1368DR,4368,4851,11798,01.121,551
2023-03-01T00:56:00,42.805,6.029,CST-1368DR,4368,4851,11798,01.121,551
2023-03-01T00:59:02,42.805,6.029,CST-1368DR,4368,4851,11798,01.121,551
2023-03-01T01:02:03,42.805,6.029,CST-1368DR,4368,4850,11797,01.122,551
2023-03-01T01:05:05,42.805,6.029,CST-1368DR,4368,4850,11795,01.122,551
2023-03-01T01:08:06,42.805,6.029,CST-1368DR,4368,4851,11798,01.121,551
2023-03-01T01:11:08,42.805,6.029,CST-1368DR,4368,4849,11794,01.123,551
2023-03-01T01:14:10,42.805,6.029,CST-1368DR,4368,4848,11790,01.124,551
2023-03-01T01:17:11,42.805,6.029,CST-1368DR,4368,4851,11799,01.121,551
2023-03-01T01:20:13,42.805,6.029,CST-1368DR,4368,4852,11800,01.121,551
2023-03-01T01:23:14,42.805,6.029,CST-1368DR,4368,4851,11799,01.121,551
2023-03-01T01:26:16,42.805,6.029,CST-1368DR,4368,4854,11804,01.119,551
2023-03-01T01:29:18,42.805,6.029,CST-1368DR,4368,4854,11806,01.119,551
2023-03-01T01:32:19,42.805,6.029,CST-1368DR,4368,4855,11807,01.118,551
2023-03-01T01:35:21,42.805,6.029,CST-1368DR,4368,4854,11806,01.119,551
2023-03-01T01:38:22,42.805,6.029,CST-1368DR,4368,4854,11806,01.119,551
2023-03-01T01:41:24,42.805,6.029,CST-1368DR,4368,4854,11804,01.119,551
2023-03-01T01:44:25,42.805,6.029,CST-1368DR,4368,4854,11806,01.119,551
2023-03-01T01:47:27,42.805,6.029,CST-1368DR,4368,4855,11808,01.118,551
2023-03-01T01:50:29,42.805,6.029,CST-1368DR,4368,4855,11807,01.118,551
2023-03-01T01:53:30,42.805,6.029,CST-1368DR,4368,4854,11806,01.119,551
2023-03-01T01:56:32,42.805,6.029,CST-1368DR,4368,4855,11808,01.118,551
2023-03-01T01:59:33,42.805,6.029,CST-1368DR,4368,4855,11808,01.118,551
2023-03-01T02:02:35,42.805,6.029,CST-1368DR,4368,4855,11807,01.118,551
2023-03-01T02:05:36,42.805,6.029,CST-1368DR,4368,4853,11804,01.119,551
2023-03-01T02:08:38,42.805,6.029,CST-1368DR,4368,4855,11809,01.118,551
2023-03-01T02:11:40,42.805,6.029,CST-1368DR,4368,4856,11810,01.117,551
2023-03-01T02:14:41,42.805,6.029,CST-1368DR,4368,4855,11809,01.118,551
2023-03-01T02:17:43,42.805,6.029,CST-1368DR,4368,4857,11812,01.117,551
2023-03-01T02:20:44,42.805,6.029,CST-1368DR,4368,4857,11812,01.117,551
2023-03-01T02:23:46,42.805,6.029,CST-1368DR,4368,4859,11817,01.115,551
2023-03-01T02:26:48,42.805,6.029,CST-1368DR,4368,4859,11817,01.115,551
2023-03-01T02:29:49,42.805,6.029,CST-1368DR,4368,4860,11820,01.114,551
2023-03-01T02:32:51,42.805,6.029,CST-1368DR,4368,4860,11820,01.114,551
2023-03-01T02:35:52,42.805,6.029,CST-1368DR,4368,4860,11820,01.114,551
2023-03-01T02:38:54,42.805,6.029,CST-1368DR,4368,4860,11819,01.114,551
2023-03-01T02:41:55,42.805,6.029,CST-1368DR,4368,4860,11819,01.114,551
2023-03-01T02:44:57,42.805,6.029,CST-1368DR,4368,4859,11817,01.115,551
2023-03-01T02:47:59,42.805,6.029,CST-1368DR,4368,4860,11820,01.114,551
2023-03-01T02:51:00,42.805,6.029,CST-1368DR,4368,4859,11817,01.115,551
2023-03-01T02:54:02,42.805,6.029,CST-1368DR,4368,4861,11823,01.113,551
2023-03-01T02:57:03,42.805,6.029,CST-1368DR,4368,4865,11831,01.110,551
2023-03-01T03:00:05,42.805,6.029,CST-1368DR,4368,4861,11822,01.113,551
2023-03-01T03:03:06,42.805,6.029,CST-1368DR,4368,4861,11821,01.114,551
2023-03-01T03:06:08,42.805,6.029,CST-1368DR,4368,4859,11818,01.115,551
2023-03-01T03:09:10,42.805,6.029,CST-1368DR,4368,4860,11819,01.114,551
2023-03-01T03:12:11,42.805,6.029,CST-1368DR,4368,4856,11810,01.117,551
2023-03-01T03:15:13,42.805,6.029,CST-1368DR,4368,4860,11820,01.114,551
2023-03-01T03:18:14,42.805,6.029,CST-1368DR,4368,4860,11819,01.114,551
2023-03-01T03:21:16,42.805,6.029,CST-1368DR,4368,4858,11815,01.116,551
2023-03-01T03:24:17,42.805,6.029,CST-1368DR,4368,4860,11820,01.114,551
2023-03-01T03:27:19,42.805,6.029,CST-1368DR,4368,4861,11822,01.113,551
2023-03-01T03:30:21,42.805,6.029,CST-1368DR,4368,4858,11816,01.115,551
2023-03-01T03:33:22,42.805,6.029,CST-1368DR,4368,4862,11825,01.112,551
2023-03-01T03:36:24,42.805,6.029,CST-1368DR,4368,4860,11819,01.114,551
2023-03-01T03:39:25,42.805,6.029,CST-1368DR,4368,4862,11825,01.112,551
2023-03-01T03:42:27,42.805,6.029,CST-1368DR,4368,4860,11821,01.114,551
2023-03-01T03:45:29,42.805,6.029,CST-1368DR,4368,4858,11816,01.115,551
2023-03-01T03:48:30,42.805,6.029,CST-1368DR,4368,4857,11812,01.117,551
2023-03-01T03:51:32,42.805,6.029,CST-1368DR,4368,4858,11816,01.115,551
2023-03-01T03:54:33,42.805,6.029,CST-1368DR,4368,4858,11815,01.116,551
2023-03-01T03:57:35,42.805,6.029,CST-1368DR,4368,4859,11817,01.115,551
2023-03-01T04:00:36,42.805,6.029,CST-1368DR,4368,4856,11809,01.118,551
2023-03-01T04:03:38,42.805,6.029,CST-1368DR,4368,4857,11812,01.117,551
2023-03-01T04:06:40,42.805,6.029,CST-1368DR,4368,4862,11825,01.112,551
2023-03-01T04:09:41,42.805,6.029,CST-1368DR,4368,4862,11824,01.113,551
2023-03-01T04:12:43,42.805,6.029,CST-1368DR,4368,4861,11821,01.114,551
2023-03-01T04:15:44,42.805,6.029,CST-1368DR,4368,4861,11822,01.113,551
2023-03-01T04:18:46,42.805,6.029,CST-1368DR,4368,4860,11819,01.114,551
2023-03-01T04:21:47,42.805,6.029,CST-1368DR,4368,4858,11816,01.115,551
2023-03-01T04:24:49,42.805,6.029,CST-1368DR,4368,4859,11818,01.115,551
2023-03-01T04:27:51,42.805,6.029,CST-1368DR,4368,4858,11814,01.116,551
2023-03-01T04:30:52,42.805,6.029,CST-1368DR,4368,4859,11817,01.115,551
2023-03-01T04:33:54,42.805,6.029,CST-1368DR,4368,4857,11812,01.117,551
2023-03-01T04:36:55,42.805,6.029,CST-1368DR,4368,4858,11815,01.116,551
2023-03-01T04:39:57,42.805,6.029,CST-1368DR,4368,4861,11821,01.114,551
2023-03-01T04:42:59,42.805,6.029,CST-1368DR,4368,4856,11810,01.117,551
2023-03-01T04:46:00,42.805,6.029,CST-1368DR,4368,4856,11810,01.117,551
2023-03-01T04:49:02,42.805,6.029,CST-1368DR,4368,4858,11814,01.116,551
2023-03-01T04:52:03,42.805,6.029,CST-1368DR,4368,4858,11815,01.116,551
2023-03-01T04:55:05,42.805,6.029,CST-1368DR,4368,4858,11814,01.116,551
2023-03-01T04:58:06,42.805,6.029,CST-1368DR,4368,4844,11782,01.127,551
2023-03-01T05:01:08,42.805,6.029,CST-1368DR,4368,4854,11806,01.119,551
2023-03-01T05:04:10,42.805,6.029,CST-1368DR,4368,4858,11815,01.116,551
2023-03-01T05:07:11,42.805,6.029,CST-1368DR,4368,4858,11814,01.116,551
2023-03-01T05:10:13,42.805,6.029,CST-1368DR,4368,4855,11808,01.118,551
2023-03-01T05:13:14,42.805,6.029,CST-1368DR,4368,4855,11809,01.118,551
2023-03-01T05:16:16,42.805,6.029,CST-1368DR,4368,4855,11808,01.118,551
2023-03-01T05:19:17,42.805,6.029,CST-1368DR,4368,4858,11815,01.116,551
2023-03-01T05:22:19,42.805,6.029,CST-1368DR,4368,4855,11808,01.118,551
2023-03-01T05:25:21,42.805,6.029,CST-1368DR,4368,4856,11809,01.118,551
2023-03-01T05:28:22,42.805,6.029,CST-1368DR,4368,4855,11808,01.118,551
2023-03-01T05:31:24,42.805,6.029,CST-1368DR,4368,4855,11809,01.118,551
2023-03-01T05:34:25,42.805,6.029,CST-1368DR,4368,4859,11818,01.115,551
2023-03-01T05:37:27,42.805,6.029,CST-1368DR,4368,4855,11807,01.118,551
2023-03-01T05:40:29,42.805,6.029,CST-1368DR,4368,4857,11813,01.116,551
2023-03-01T05:43:30,42.805,6.029,CST-1368DR,4368,4859,11817,01.115,551
2023-03-01T05:46:32,42.805,6.029,CST-1368DR,4368,4852,11800,01.121,551
2023-03-01T05:49:33,42.805,6.029,CST-1368DR,4368,4857,11814,01.116,551
2023-03-01T05:52:35,42.805,6.029,CST-1368DR,4368,4858,11816,01.115,551
2023-03-01T05:55:36,42.805,6.029,CST-1368DR,4368,4855,11808,01.118,551
2023-03-01T05:58:38,42.805,6.029,CST-1368DR,4368,4855,11808,01.118,551
2023-03-01T06:01:40,42.805,6.029,CST-1368DR,4368,4856,11811,01.117,551
2023-03-01T06:04:41,42.805,6.029,CST-1368DR,4368,4858,11814,01.116,551
2023-03-01T06:07:43,42.805,6.029,CST-1368DR,4368,4854,11806,01.119,551
2023-03-01T06:10:44,42.805,6.029,CST-1368DR,4368,4858,11814,01.116,551
2023-03-01T06:13:46,42.805,6.029,CST-1368DR,4368,4857,11812,01.117,551
2023-03-01T06:16:47,42.805,6.029,CST-1368DR,4368,4859,11818,01.115,551
2023-03-01T06:19:49,42.805,6.029,CST-1368DR,4368,4859,11818,01.115,551
2023-03-01T06:22:51,42.805,6.029,CST-1368DR,4368,4858,11815,01.116,551
2023-03-01T06:25:52,42.805,6.029,CST-1368DR,4368,4857,11812,01.117,551
2023-03-01T06:28:54,42.805,6.029,CST-1368DR,4368,4854,11806,01.119,551
2023-03-01T06:31:55,42.805,6.029,CST-1368DR,4368,4856,11809,01.118,551
2023-03-01T06:34:57,42.805,6.029,CST-1368DR,4368,4855,11807,01.118,551
2023-03-01T06:37:58,42.805,6.029,CST-1368DR,4368,4860,11820,01.114,551
2023-03-01T06:41:00,42.805,6.029,CST-1368DR,4368,4854,11806,01.119,551
2023-03-01T06:44:02,42.805,6.029,CST-1368DR,4368,4855,11807,01.118,551
2023-03-01T06:47:03,42.805,6.029,CST-1368DR,4368,4858,11815,01.116,551
2023-03-01T06:50:05,42.805,6.029,CST-1368DR,4368,4856,11809,01.118,551
2023-03-01T06:53:06,42.805,6.029,CST-1368DR,4368,4854,11804,01.119,551
2023-03-01T06:56:08,42.805,6.029,CST-1368DR,4368,4858,11816,01.115,551
2023-03-01T06:59:10,42.805,6.029,CST-1368DR,4368,4856,11810,01.117,551
2023-03-01T07:02:11,42.805,6.029,CST-1368DR,4368,4854,11805,01.119,551
2023-03-01T07:05:13,42.805,6.029,CST-1368DR,4368,4856,11811,01.117,551
2023-03-01T07:08:14,42.805,6.029,CST-1368DR,4368,4849,11793,01.123,551
2023-03-01T07:11:16,42.805,6.029,CST-1368DR,4368,4853,11803,01.120,551
2023-03-01T07:14:17,42.805,6.029,CST-1368DR,4368,4858,11815,01.116,551
2023-03-01T07:17:19,42.805,6.029,CST-1368DR,4368,4857,11814,01.116,551
2023-03-01T07:20:21,42.805,6.029,CST-1368DR,4368,4854,11806,01.119,551
2023-03-01T07:23:22,42.805,6.029,CST-1368DR,4368,4856,11809,01.118,551
2023-03-01T07:26:24,42.805,6.029,CST-1368DR,4368,4852,11800,01.121,551
2023-03-01T07:29:25,42.805,6.029,CST-1368DR,4368,4856,11810,01.117,551
2023-03-01T07:32:27,42.805,6.029,CST-1368DR,4368,4852,11800,01.121,551
2023-03-01T07:35:29,42.805,6.029,CST-1368DR,4368,4858,11815,01.116,551
2023-03-01T07:38:30,42.805,6.029,CST-1368DR,4368,4855,11808,01.118,551
2023-03-01T07:41:32,42.805,6.029,CST-1368DR,4368,4855,11808,01.118,551
2023-03-01T07:44:33,42.805,6.029,CST-1368DR,4368,4855,11809,01.118,551
2023-03-01T07:47:35,42.805,6.029,CST-1368DR,4368,4855,11808,01.118,551
2023-03-01T07:50:36,42.805,6.029,CST-1368DR,4368,4857,11814,01.116,551
2023-03-01T07:53:38,42.805,6.029,CST-1368DR,4368,4857,11814,01.116,551
2023-03-01T07:56:40,42.805,6.029,CST-1368DR,4368,4851,11799,01.121,551
2023-03-01T07:59:41,42.805,6.029,CST-1368DR,4368,4849,11793,01.123,551
2023-03-01T08:02:43,42.805,6.029,CST-1368DR,4368,4859,11817,01.115,551
2023-03-01T08:05:44,42.805,6.029,CST-1368DR,4368,4836,11762,01.134,551
2023-03-01T08:08:46,42.805,6.029,CST-1368DR,4368,4837,11763,01.133,551
2023-03-01T08:11:47,42.805,6.029,CST-1368DR,4368,4823,11730,01.145,551
2023-03-01T08:14:49,42.805,6.029,CST-1368DR,4368,4831,11749,01.138,551
2023-03-01T08:17:51,42.805,6.029,CST-1368DR,4368,4817,11716,01.149,551
2023-03-01T08:20:52,42.805,6.029,CST-1368DR,4368,4828,11742,01.140,551
2023-03-01T08:23:54,42.805,6.029,CST-1368DR,4368,4822,11727,01.146,551
2023-03-01T08:26:55,42.805,6.029,CST-1368DR,4368,4835,11759,01.135,551
2023-03-01T08:29:57,42.805,6.029,CST-1368DR,4368,4835,11758,01.135,551
2023-03-01T08:32:58,42.805,6.029,CST-1368DR,4368,4835,11759,01.135,551
2023-03-01T08:36:00,42.805,6.029,CST-1368DR,4368,4833,11755,01.136,551
2023-03-01T08:39:02,42.805,6.029,CST-1368DR,4368,4837,11763,01.133,551
2023-03-01T08:42:03,42.805,6.029,CST-1368DR,4368,4840,11770,01.131,551
2023-03-01T08:45:05,42.805,6.029,CST-1368DR,4368,4836,11762,01.134,551
2023-03-01T08:48:06,42.805,6.029,CST-1368DR,4368,4836,11763,01.133,551
2023-03-01T08:51:08,42.805,6.029,CST-1368DR,4368,4834,11757,01.135,551
2023-03-01T08:54:10,42.805,6.029,CST-1368DR,4368,4831,11750,01.138,551
2023-03-01T08:57:11,42.805,6.029,CST-1368DR,4368,4834,11758,01.135,551
2023-03-01T09:00:13,42.805,6.029,CST-1368DR,4368,4834,11758,01.135,551
2023-03-01T09:03:14,42.805,6.029,CST-1368DR,4368,4836,11761,01.134,551
2023-03-01T09:06:16,42.805,6.029,CST-1368DR,4368,4834,11756,01.136,551
2023-03-01T09:09:17,42.805,6.029,CST-1368DR,4368,4831,11749,01.138,551
2023-03-01T09:12:19,42.805,6.029,CST-1368DR,4368,4836,11762,01.134,551
2023-03-01T09:15:21,42.805,6.029,CST-1368DR,4368,4832,11752,01.137,551
2023-03-01T09:18:22,42.805,6.029,CST-1368DR,4368,4830,11747,01.139,551
2023-03-01T09:21:24,42.805,6.029,CST-1368DR,4368,4838,11767,01.132,551
2023-03-01T09:24:25,42.805,6.029,CST-1368DR,4368,4832,11752,01.137,551
2023-03-01T09:27:27,42.805,6.029,CST-1368DR,4368,4829,11744,01.140,551
2023-03-01T09:30:28,42.805,6.029,CST-1368DR,4368,4833,11755,01.136,551
2023-03-01T09:33:30,42.805,6.029,CST-1368DR,4368,4834,11757,01.135,551
2023-03-01T09:36:32,42.805,6.029,CST-1368DR,4368,4833,11755,01.136,551
2023-03-01T09:39:33,42.805,6.029,CST-1368DR,4368,4834,11757,01.135,551
2023-03-01T09:42:35,42.805,6.029,CST-1368DR,4368,4833,11754,01.136,551
2023-03-01T09:45:36,42.805,6.029,CST-1368DR,4368,4835,11759,01.135,551
2023-03-01T09:48:38,42.805,6.029,CST-1368DR,4368,4836,11762,01.134,551
2023-03-01T09:51:40,42.805,6.029,CST-1368DR,4368,4835,11758,01.135,551
2023-03-01T09:54:41,42.805,6.029,CST-1368DR,4368,4834,11757,01.135,551
2023-03-01T09:57:43,42.805,6.029,CST-1368DR,4368,4833,11755,01.136,551
2023-03-01T10:00:44,42.805,6.029,CST-1368DR,4368,4840,11771,01.131,551
2023-03-01T10:03:46,42.805,6.029,CST-1368DR,4368,4832,11751,01.137,551
2023-03-01T10:06:47,42.805,6.029,CST-1368DR,4368,4831,11750,01.138,551
2023-03-01T10:09:49,42.805,6.029,CST-1368DR,4368,4833,11754,01.136,551
2023-03-01T10:12:51,42.805,6.029,CST-1368DR,4368,4838,11766,01.132,551
2023-03-01T10:15:52,42.805,6.029,CST-1368DR,4368,4833,11755,01.136,551
2023-03-01T10:18:54,42.805,6.029,CST-1368DR,4368,4835,11759,01.135,551
2023-03-01T10:21:55,42.805,6.029,CST-1368DR,4368,4836,11761,01.134,551
2023-03-01T10:24:57,42.805,6.029,CST-1368DR,4368,4836,11761,01.134,551
2023-03-01T10:27:58,42.805,6.029,CST-1368DR,4368,4834,11756,01.136,551
2023-03-01T10:31:00,42.805,6.029,CST-1368DR,4368,4837,11763,01.133,551
2023-03-01T10:34:02,42.805,6.029,CST-1368DR,4368,4836,11763,01.133,551
2023-03-01T10:37:03,42.805,6.029,CST-1368DR,4368,4837,11763,01.133,551
2023-03-01T10:40:05,42.805,6.029,CST-1368DR,4368,4838,11766,01.132,551
2023-03-01T10:43:06,42.805,6.029,CST-1368DR,4368,4832,11752,01.137,551
2023-03-01T10:46:08,42.805,6.029,CST-1368DR,4368,4835,11758,01.135,551
2023-03-01T10:49:10,42.805,6.029,CST-1368DR,4368,4833,11754,01.136,551
2023-03-01T10:52:11,42.805,6.029,CST-1368DR,4368,4833,11755,01.136,551
2023-03-01T10:55:13,42.805,6.029,CST-1368DR,4368,4831,11750,01.138,551
2023-03-01T10:58:14,42.805,6.029,CST-1368DR,4368,4834,11758,01.135,551
2023-03-01T11:01:16,42.805,6.029,CST-1368DR,4368,4840,11772,01.130,551
2023-03-01T11:04:17,42.805,6.029,CST-1368DR,4368,4835,11758,01.135,551
2023-03-01T11:07:19,42.805,6.029,CST-1368DR,4368,4846,11786,01.126,551
2023-03-01T11:10:21,42.805,6.029,CST-1368DR,4368,4842,11776,01.129,551
2023-03-01T11:13:22,42.805,6.029,CST-1368DR,4368,4838,11766,01.132,551
2023-03-01T11:16:24,42.805,6.029,CST-1368DR,4368,4838,11766,01.132,551
2023-03-01T11:19:25,42.805,6.029,CST-1368DR,4368,4835,11760,01.134,551
2023-03-01T11:22:27,42.805,6.029,CST-1368DR,4368,4837,11763,01.133,551
2023-03-01T11:25:28,42.805,6.029,CST-1368DR,4368,4835,11759,01.135,551
2023-03-01T11:28:30,42.805,6.029,CST-1368DR,4368,4840,11772,01.130,551
2023-03-01T11:31:32,42.805,6.029,CST-1368DR,4368,4841,11773,01.130,551
2023-03-01T11:34:33,42.805,6.029,CST-1368DR,4368,4840,11771,01.131,551
2023-03-01T11:37:35,42.805,6.029,CST-1368DR,4368,4844,11781,01.127,551
2023-03-01T11:40:36,42.805,6.029,CST-1368DR,4368,4837,11763,01.133,551
2023-03-01T11:43:38,42.805,6.029,CST-1368DR,4368,4834,11757,01.135,551
2023-03-01T11:46:39,42.805,6.029,CST-1368DR,4368,4838,11767,01.132,551
2023-03-01T11:49:41,42.805,6.029,CST-1368DR,4368,4838,11767,01.132,551
2023-03-01T11:52:43,42.805,6.029,CST-1368DR,4368,4836,11762,01.134,551
2023-03-01T11:55:44,42.805,6.029,CST-1368DR,4368,4841,11773,01.130,551
2023-03-01T11:58:46,42.805,6.029,CST-1368DR,4368,4837,11765,01.133,551
2023-03-01T12:01:47,42.805,6.029,CST-1368DR,4368,4840,11770,01.131,551
2023-03-01T12:04:49,42.805,6.029,CST-1368DR,4368,4839,11768,01.132,551
2023-03-01T12:07:51,42.805,6.029,CST-1368DR,4368,4837,11763,01.133,551
2023-03-01T12:10:52,42.805,6.029,CST-1368DR,4368,4838,11766,01.132,551
2023-03-01T12:13:54,42.805,6.029,CST-1368DR,4368,4841,11773,01.130,551
2023-03-01T12:16:55,42.805,6.029,CST-1368DR,4368,4838,11767,01.132,551
2023-03-01T12:19:57,42.805,6.029,CST-1368DR,4368,4833,11755,01.136,551
2023-03-01T12:22:58,42.805,6.029,CST-1368DR,4368,4828,11742,01.140,551
2023-03-01T12:26:00,42.805,6.029,CST-1368DR,4368,4827,11740,01.141,551
2023-03-01T12:29:02,42.805,6.029,CST-1368DR,4368,4827,11739,01.142,551
2023-03-01T12:32:03,42.805,6.029,CST-1368DR,4367,4827,11742,01.140,551
2023-03-01T12:35:05,42.805,6.029,CST-1368DR,4368,4835,11759,01.135,551
2023-03-01T12:38:06,42.805,6.029,CST-1368DR,4368,4835,11758,01.135,551
2023-03-01T12:41:08,42.805,6.029,CST-1368DR,4368,4818,11719,01.148,551
2023-03-01T12:44:09,42.805,6.029,CST-1368DR,4368,4830,11746,01.139,551
2023-03-01T12:47:11,42.805,6.029,CST-1368DR,4368,4836,11762,01.134,551
2023-03-01T12:50:13,42.805,6.029,CST-1368DR,4368,4861,11821,01.114,551
2023-03-01T12:53:14,42.805,6.029,CST-1368DR,4368,4858,11814,01.116,551
2023-03-01T12:56:16,42.805,6.029,CST-1368DR,4368,4860,11821,01.114,551
2023-03-01T12:59:17,42.805,6.029,CST-1368DR,4368,4858,11816,01.115,551
2023-03-01T13:02:19,42.805,6.029,CST-1368DR,4368,4855,11807,01.118,551
2023-03-01T13:05:21,42.805,6.029,CST-1368DR,4368,4859,11817,01.115,551
2023-03-01T13:08:22,42.805,6.029,CST-1368DR,4368,4859,11817,01.115,551
2023-03-01T13:11:24,42.805,6.029,CST-1368DR,4368,4858,11814,01.116,551
2023-03-01T13:14:25,42.805,6.029,CST-1368DR,4368,4864,11831,01.110,551
2023-03-01T13:17:27,42.805,6.029,CST-1368DR,4368,4858,11816,01.115,551
2023-03-01T13:20:28,42.805,6.029,CST-1368DR,4368,4860,11820,01.114,551
2023-03-01T13:23:30,42.805,6.029,CST-1368DR,4368,4858,11814,01.116,551
2023-03-01T13:26:32,42.805,6.029,CST-1368DR,4368,4857,11814,01.116,551
2023-03-01T13:29:33,42.805,6.029,CST-1368DR,4368,4862,11824,01.113,551
2023-03-01T13:32:35,42.805,6.029,CST-1368DR,4368,4857,11814,01.116,551
2023-03-01T13:35:36,42.805,6.029,CST-1368DR,4368,4857,11812,01.117,551
2023-03-01T13:38:38,42.805,6.029,CST-1368DR,4368,4860,11821,01.114,551
2023-03-01T13:41:39,42.805,6.029,CST-1368DR,4368,4860,11821,01.114,551
2023-03-01T13:44:41,42.805,6.029,CST-1368DR,4368,4856,11810,01.117,551
2023-03-01T13:47:43,42.805,6.029,CST-1368DR,4368,4859,11817,01.115,551
2023-03-01T13:50:44,42.805,6.029,CST-1368DR,4368,4859,11817,01.115,551
2023-03-01T13:53:46,42.805,6.029,CST-1368DR,4368,4855,11808,01.118,551
2023-03-01T13:56:47,42.805,6.029,CST-1368DR,4368,4857,11814,01.116,551
2023-03-01T13:59:49,42.805,6.029,CST-1368DR,4368,4861,11823,01.113,551
2023-03-01T14:02:51,42.805,6.029,CST-1368DR,4368,4860,11820,01.114,551
2023-03-01T14:05:52,42.805,6.029,CST-1368DR,4368,4864,11829,01.111,551
2023-03-01T14:08:54,42.805,6.029,CST-1368DR,4368,4857,11813,01.116,551
2023-03-01T14:11:55,42.805,6.029,CST-1368DR,4368,4860,11820,01.114,551
2023-03-01T14:14:57,42.805,6.029,CST-1368DR,4368,4868,11840,01.107,551
2023-03-01T14:17:58,42.805,6.029,CST-1368DR,4368,4862,11824,01.113,551
2023-03-01T14:21:00,42.805,6.029,CST-1368DR,4368,4864,11830,01.111,551
2023-03-01T14:24:02,42.805,6.029,CST-1368DR,4368,4861,11821,01.114,551
2023-03-01T14:27:03,42.805,6.029,CST-1368DR,4368,4860,11820,01.114,551
2023-03-01T14:30:05,42.805,6.029,CST-1368DR,4368,4860,11820,01.114,551
2023-03-01T14:33:06,42.805,6.029,CST-1368DR,4368,4862,11825,01.112,551
2023-03-01T14:36:08,42.805,6.029,CST-1368DR,4368,4861,11822,01.113,551
2023-03-01T14:39:10,42.805,6.029,CST-1368DR,4368,4860,11820,01.114,551
2023-03-01T14:42:11,42.805,6.029,CST-1368DR,4368,4860,11820,01.114,551
2023-03-01T14:45:13,42.805,6.029,CST-1368DR,4368,4860,11820,01.114,551
2023-03-01T14:48:14,42.805,6.029,CST-1368DR,4368,4861,11821,01.114,551
2023-03-01T14:51:16,42.805,6.029,CST-1368DR,4368,4858,11816,01.115,551
2023-03-01T14:54:17,42.805,6.029,CST-1368DR,4368,4858,11814,01.116,551
2023-03-01T14:57:19,42.805,6.029,CST-1368DR,4368,4857,11812,01.117,551
2023-03-01T15:00:21,42.805,6.029,CST-1368DR,4368,4855,11808,01.118,551
2023-03-01T15:03:22,42.805,6.029,CST-1368DR,4368,4858,11814,01.116,551
2023-03-01T15:06:24,42.805,6.029,CST-1368DR,4368,4854,11806,01.119,551
2023-03-01T15:09:25,42.805,6.029,CST-1368DR,4368,4857,11814,01.116,551
2023-03-01T15:12:27,42.805,6.029,CST-1368DR,4368,4857,11814,01.116,551
2023-03-01T15:15:28,42.805,6.029,CST-1368DR,4368,4860,11820,01.114,551
2023-03-01T15:18:30,42.805,6.029,CST-1368DR,4368,4857,11812,01.117,551
2023-03-01T15:21:32,42.805,6.029,CST-1368DR,4368,4858,11814,01.116,551
2023-03-01T15:24:33,42.805,6.029,CST-1368DR,4368,4860,11819,01.114,551
2023-03-01T15:27:35,42.805,6.029,CST-1368DR,4368,4860,11820,01.114,551
2023-03-01T15:30:36,42.805,6.029,CST-1368DR,4368,4864,11830,01.111,551
2023-03-01T15:33:38,42.805,6.029,CST-1368DR,4368,4855,11808,01.118,551
2023-03-01T15:36:39,42.805,6.029,CST-1368DR,4368,4855,11808,01.118,551
2023-03-01T15:39:41,42.805,6.029,CST-1368DR,4368,4860,11820,01.114,551
2023-03-01T15:42:43,42.805,6.029,CST-1368DR,4368,4856,11810,01.117,551
2023-03-01T15:45:44,42.805,6.029,CST-1368DR,4368,4860,11821,01.114,551
2023-03-01T15:48:46,42.805,6.029,CST-1368DR,4368,4860,11819,01.114,551
2023-03-01T15:51:47,42.805,6.029,CST-1368DR,4368,4858,11814,01.116,551
2023-03-01T15:54:49,42.805,6.029,CST-1368DR,4368,4858,11815,01.116,551
2023-03-01T15:57:51,42.805,6.029,CST-1368DR,4368,4860,11819,01.114,551
2023-03-01T16:00:52,42.805,6.029,CST-1368DR,4368,4859,11817,01.115,551
2023-03-01T16:03:54,42.805,6.029,CST-1368DR,4368,4861,11822,01.113,551
2023-03-01T16:06:55,42.805,6.029,CST-1368DR,4368,4860,11820,01.114,551
2023-03-01T16:09:57,42.805,6.029,CST-1368DR,4368,4861,11822,01.113,551
2023-03-01T16:12:58,42.805,6.029,CST-1368DR,4368,4861,11821,01.114,551
2023-03-01T16:16:00,42.805,6.029,CST-1368DR,4368,4857,11813,01.116,551
2023-03-01T16:19:02,42.805,6.029,CST-1368DR,4368,4861,11821,01.114,551
2023-03-01T16:22:03,42.805,6.029,CST-1368DR,4368,4858,11815,01.116,551
2023-03-01T16:25:05,42.805,6.029,CST-1368DR,4368,4858,11816,01.115,551
2023-03-01T16:28:06,42.805,6.029,CST-1368DR,4368,4860,11820,01.114,551
2023-03-01T16:31:08,42.805,6.029,CST-1368DR,4368,4862,11826,01.112,551
2023-03-01T16:34:09,42.805,6.029,CST-1368DR,4368,4862,11826,01.112,551
2023-03-01T16:37:11,42.805,6.029,CST-1368DR,4368,4861,11822,01.113,551